Juliana Airport, Sint Maarten

5:33 AM AST on June 26, 2017 (GMT -0400)
Princess Juliana International

Weather History for TNCM - January, 2014

Change the Weather History Date:

Friday, January 24, 2014

  Actual Average Record
Temperature  
Mean Temperature 78 °F -  
Max Temperature 81 °F 81 °F 84 °F (1998)
Min Temperature 75 °F 72 °F 71 °F (2005)
Cooling Degree Days 13    
Growing Degree Days 28 (Base 50)    
Moisture  
Dew Point 69 °F    
Average Humidity 74    
Maximum Humidity 89    
Minimum Humidity 22    
Precipitation  
Precipitation 0.28 in 0.06 in - ()
Sea Level Pressure  
Sea Level Pressure 30.05 in    
Wind  
Wind Speed 10 mph ()    
Max Wind Speed 17 mph    
Max Gust Speed 26 mph    
Visibility 6.7 miles    
Events Rain    
Averages and records for this station are not official NWS values.
T = Trace of Precipitation, MM = Missing Value Source: Averaged Metar Reports

Daily Weather History Graph

Daily Weather History Graph

Search for Another Location

Airport or City:

Trip Planner

Search our weather history database for the weather conditions in past years. The results will help you decide how hot, cold, wet, or windy it might be!

Date:

Astronomy

Jan. 24, 2014 Rise Set
Actual Time 6:46 AM AST 6:02 PM AST
Civil Twilight 6:23 AM AST 6:25 PM AST
Nautical Twilight 5:57 AM AST 6:51 PM AST
Astronomical Twilight 5:31 AM AST 7:18 PM AST
Moon 12:22 AM AST (1/24) 12:09 PM AST (1/24)
Length of Visible Light 12h 01m
Length of Day
11h 15m
Last Quarter, 45% of the Moon is Illuminated
Jan 24
Last Quarter
Jan 30
New
Feb 6
First Quarter
Feb 14
Full
Feb 22
Last Quarter

Hourly Weather History & Observations

Time (AST) Temp. Heat Index Dew Point Humidity Pressure Visibility Wind Dir Wind Speed Gust Speed Precip Events Conditions
12:00 AM 77.0 °F - 68.0 °F 74% 30.06 in 6.2 mi East 10.4 mph 26.5 mph N/A   Scattered Clouds
1:00 AM 77.0 °F - 68.0 °F 74% 30.06 in 6.2 mi ENE 15.0 mph - N/A   Partly Cloudy
2:00 AM 77 °F - 68 °F 67% 30.06 in 19 mi East 11.5 mph - -   Partly Cloudy
2:00 AM 77.0 °F - 68.0 °F 74% 30.04 in 6.2 mi East 11.5 mph - N/A   Scattered Clouds
3:00 AM 77.0 °F - 68.0 °F 74% 30.04 in 6.2 mi ENE 10.4 mph - N/A   Partly Cloudy
4:00 AM 77.0 °F - 68.0 °F 74% 30.04 in 6.2 mi East 9.2 mph - N/A   Scattered Clouds
5:00 AM 77 °F - 69 °F 70% 30.04 in 19 mi ENE 10.4 mph - -   Partly Cloudy
5:00 AM 77.0 °F - 69.8 °F 78% 30.04 in 6.2 mi ENE 10.4 mph - N/A   Scattered Clouds
6:00 AM 77.0 °F - 69.8 °F 78% 30.04 in 6.2 mi NE 9.2 mph - N/A   Mostly Cloudy
7:00 AM 77.0 °F - 71.6 °F 83% 30.04 in 6.2 mi NE 9.2 mph - N/A   Mostly Cloudy
7:29 AM 77.0 °F - 71.6 °F 83% 30.04 in 6.2 mi NE 9.2 mph - N/A Rain Light Rain Showers
8:00 AM 77 °F - 72 °F 81% 30.07 in 3 mi NE 6.9 mph - - Rain Light Rain Showers
8:00 AM 77.0 °F - 35.6 °F 22% 30.06 in 6.2 mi NE 6.9 mph - N/A Rain Light Rain Showers
9:00 AM 78.8 °F - 73.4 °F 83% 30.06 in 6.2 mi East 8.1 mph - N/A   Mostly Cloudy
10:00 AM 78.8 °F - 71.6 °F 78% 30.09 in 6.2 mi East 9.2 mph - N/A Rain Light Rain Showers
10:22 AM 75.2 °F - 71.6 °F 89% 30.09 in 1.9 mi ESE 9.2 mph 23.0 mph N/A Rain Light Rain
11:00 AM 78 °F - 73 °F 81% 30.10 in 7 mi ESE 11.5 mph - -   Mostly Cloudy
11:00 AM 77.0 °F - 73.4 °F 89% 30.10 in 6.2 mi ESE 8.1 mph - N/A   Mostly Cloudy
11:08 AM 77.0 °F - 73.4 °F 89% 30.09 in 5.0 mi East 10.4 mph - N/A Rain Light Rain Showers
12:00 PM 77.0 °F - 69.8 °F 78% 30.06 in 6.2 mi ESE 15.0 mph - N/A   Mostly Cloudy
12:26 PM 78.8 °F - 71.6 °F 78% 30.06 in 6.2 mi East 11.5 mph - N/A Rain Light Rain Showers
12:32 PM 77.0 °F - 69.8 °F 78% 30.06 in 4.3 mi East 11.5 mph - N/A Rain Rain Showers
1:00 PM 77.0 °F - 71.6 °F 83% 30.04 in 6.2 mi ESE 10.4 mph - N/A   Mostly Cloudy
2:00 PM 80 °F - 70 °F 64% 30.03 in 22 mi ESE 17.3 mph - - Rain Light Rain Showers
2:00 PM 80.6 °F 83.9 °F 69.8 °F 70% 30.01 in 6.2 mi East 16.1 mph - N/A   Scattered Clouds
3:00 PM 80.6 °F 83.9 °F 69.8 °F 70% 30.01 in 6.2 mi East 11.5 mph - N/A   Partly Cloudy
5:00 PM 80 °F - 68 °F 59% 30.03 in 28 mi East 11.5 mph - -   Partly Cloudy
5:00 PM 80.6 °F 83.2 °F 68.0 °F 65% 30.01 in 6.2 mi East 11.5 mph - N/A   Scattered Clouds
6:00 PM 78.8 °F - 68.0 °F 69% 30.04 in 6.2 mi East 10.4 mph - N/A   Scattered Clouds
7:00 PM 77.0 °F - 68.0 °F 74% 30.04 in 6.2 mi East 11.5 mph - N/A   Partly Cloudy
8:00 PM 78 °F - 68 °F 64% 30.05 in 22 mi East 11.5 mph - -   Partly Cloudy
8:00 PM 77.0 °F - 68.0 °F 74% 30.04 in 6.2 mi East 11.5 mph - N/A   Scattered Clouds
9:00 PM 78.8 °F - 69.8 °F 74% 30.06 in 6.2 mi East 9.2 mph - N/A   Mostly Cloudy
10:00 PM 78.8 °F - 69.8 °F 74% 30.06 in 6.2 mi East 12.7 mph - N/A   Mostly Cloudy
11:00 PM 78 °F - 69 °F 66% 30.07 in 22 mi East 9.2 mph - -   Mostly Cloudy
11:00 PM 77.0 °F - 68.0 °F 74% 30.06 in 6.2 mi East 9.2 mph - N/A   Mostly Cloudy